Jackson, MI

2:53 PM EDT on April 25, 2017 (GMT -0400)
Jackson County-Reynolds

Weather History for KJXN - April, 2014

Change the Weather History Date:

Wednesday, April 2, 2014

  Actual Average Record
Temperature  
Mean Temperature 42 °F 43 °F  
Max Temperature 55 °F 53 °F 80 °F (1963)
Min Temperature 29 °F 32 °F 19 °F (2013)
Degree Days  
Heating Degree Days 23 22  
Month to date heating degree days 42 45  
Since 1 July heating degree days 6781 5869  
Cooling Degree Days 0 0  
Month to date cooling degree days 0 0  
Year to date cooling degree days 0 0  
Moisture  
Dew Point 25 °F    
Average Humidity 53    
Maximum Humidity 78    
Minimum Humidity 28    
Precipitation  
Precipitation 0.00 in 0.08 in 1.06 in (1964)
Month to date precipitation 0.02 0.16  
Year to date precipitation 6.21 4.84  
Sea Level Pressure  
Sea Level Pressure 30.14 in    
Wind  
Wind Speed 4 mph (North)    
Max Wind Speed 12 mph    
Max Gust Speed 15 mph    
Visibility 10 miles    
Events      
T = Trace of Precipitation, MM = Missing Value Source: NWS Daily Summary

Daily Weather History Graph

Daily Weather History Graph

Search for Another Location

Airport or City:

Trip Planner

Search our weather history database for the weather conditions in past years. The results will help you decide how hot, cold, wet, or windy it might be!

Date:

Astronomy

Apr. 02, 2014 Rise Set
Actual Time 7:18 AM EDT 8:04 PM EDT
Civil Twilight 6:50 AM EDT 8:33 PM EDT
Nautical Twilight 6:16 AM EDT 9:06 PM EDT
Astronomical Twilight 5:41 AM EDT 9:41 PM EDT
Moon 8:59 AM EDT (4/2) 11:30 PM EDT (4/2)
Length of Visible Light 13h 42m
Length of Day
12h 46m
Waxing Crescent, 10% of the Moon is Illuminated
Apr 2
Waxing Crescent
Apr 7
First Quarter
Apr 15
Full
Apr 22
Last Quarter
Apr 29
New

Hourly Weather History & Observations

Time (EDT) Temp. Windchill Dew Point Humidity Pressure Visibility Wind Dir Wind Speed Gust Speed Precip Events Conditions
12:56 AM 37.0 °F 30.4 °F 26.1 °F 65% 30.05 in 10.0 mi West 9.2 mph - N/A   Clear
1:56 AM 35.1 °F 29.3 °F 26.1 °F 70% 30.06 in 10.0 mi WNW 6.9 mph - N/A   Clear
2:56 AM 33.1 °F 28.7 °F 26.1 °F 75% 30.06 in 10.0 mi NNW 4.6 mph - N/A   Partly Cloudy
3:56 AM 33.1 °F 30.0 °F 26.1 °F 75% 30.09 in 10.0 mi West 3.5 mph - N/A   Clear
4:56 AM 33.1 °F - 26.1 °F 75% 30.08 in 10.0 mi Calm Calm - N/A   Clear
5:56 AM 32.0 °F - 25.0 °F 75% 30.11 in 10.0 mi Calm Calm - N/A   Scattered Clouds
6:56 AM 30.0 °F 26.5 °F 24.1 °F 79% 30.14 in 10.0 mi WNW 3.5 mph - N/A   Scattered Clouds
8:56 AM 34.0 °F - 24.1 °F 67% 30.17 in 10.0 mi Calm Calm - N/A   Clear
9:56 AM 37.0 °F - 23.0 °F 57% 30.18 in 10.0 mi Calm Calm - N/A   Clear
10:56 AM 42.1 °F 40.2 °F 24.1 °F 49% 30.19 in 10.0 mi Variable 3.5 mph - N/A   Clear
11:56 AM 44.1 °F 42.5 °F 24.1 °F 45% 30.17 in 10.0 mi North 3.5 mph - N/A   Clear
12:56 PM 46.9 °F - 25.0 °F 42% 30.17 in 10.0 mi Variable 3.5 mph - N/A   Clear
1:56 PM 50.0 °F - 25.0 °F 38% 30.17 in 10.0 mi Variable 4.6 mph - N/A   Clear
2:56 PM 52.0 °F - 24.1 °F 34% 30.15 in 10.0 mi NNW 6.9 mph - N/A   Clear
3:56 PM 53.1 °F - 21.9 °F 30% 30.15 in 10.0 mi WSW 6.9 mph - N/A   Clear
4:56 PM 53.1 °F - 21.9 °F 30% 30.14 in 10.0 mi NNW 4.6 mph - N/A   Clear
5:56 PM 54.0 °F - 24.1 °F 31% 30.13 in 10.0 mi North 6.9 mph - N/A   Clear
6:56 PM 52.0 °F - 23.0 °F 32% 30.13 in 10.0 mi ENE 4.6 mph - N/A   Clear
7:56 PM 48.9 °F - 23.0 °F 36% 30.15 in 10.0 mi ENE 4.6 mph - N/A   Clear
8:56 PM 46.0 °F 44.8 °F 25.0 °F 44% 30.16 in 10.0 mi NE 3.5 mph - N/A   Mostly Cloudy
9:56 PM 46.0 °F 41.9 °F 27.0 °F 47% 30.16 in 10.0 mi NE 8.1 mph - N/A   Mostly Cloudy
10:56 PM 44.1 °F 39.5 °F 28.0 °F 53% 30.16 in 10.0 mi ENE 8.1 mph - N/A   Overcast
11:56 PM 44.1 °F 40.8 °F 27.0 °F 51% 30.16 in 10.0 mi ENE 5.8 mph - N/A   Overcast